FENGYUN 1C DEB

Satellite information

Favourite Embed

Satellite Type and Status

DEBRISIN ORBIT

Key statistics

Satellite FENGYUN 1C DEB at a glance.

Uptime

9716

Days in orbit

Revolutions

≈ 14.3

Per day

Orbit

SSO

Sun Synchronous Orbit

Inclination

98.7

Latest

Satellite identification and parameters

Extended collection of information and parameters for FENGYUN 1C DEB.

Object identification

Identified? True

Debris? True

Object name: FENGYUN 1C DEB

International designator: 1999-025GH

Object number (NORAD): 29887

Object ID (CCSDS): 29887

Country: PEOPLES REPUBLIC OF CHINA (PRC)

Current information (Y/N): Y

RCS size: SMALL

Orbital parameters

Period: 100.438 minutes

Inclination: 98.718 deg

SMA: 7157.465 km

Apoapsis: 984.668 km

Periapsis: 573.993 km

RAAN: 69.8074 deg

Eccentricy: 0.0286886

Argument of periapsis: 354.8824 deg

Mean anomaly: 63.3808 deg

Mean motion: 14.33718446 rev/day

Mean motion (dot): 0.00002791 rev/day2

B* drag term: 0.00064610502 1/REarth

Two-line elements (TLE)

Creation date: Dec. 14, 2025, 6:24 p.m.

Reference frame: TEME

Reference center: EARTH

Epoch: Dec. 14, 2025, 4:23 a.m. UTC

TLE line 0: 0 FENGYUN 1C DEB

TLE line 1: 1 29887U 99025GH 25348.18282062 .00002791 00000-0 64611-3 0 9990

TLE line 2: 2 29887 98.7180 69.8074 0286886 354.8824 63.3808 14.33718446979953

Live tracking on map

Real-time ground track for satellite FENGYUN 1C DEB.

In-orbit conjunctions

A list of the most updated potential collisions computed for object FENGYUN 1C DEB.

Target Orbit TCA Probability of collision Miss distance Type
CZ-6A DEB LEO 2024-12-16 06:22:45 0.000365296 816.0 (m) DEBRIS
PICOSAT 6 SSO 2024-06-25 18:00:38 0.000106241 741.0 (m) PAYLOAD

Associated space launch

Chinese polar orbiting meteorological satellite

FENGYUN 1C DEB was lifted into orbit during the mission ‘Long March 4B | Feng Yun 1C’, on board a Long March 4B space rocket.

The launch took place on May 10, 1999, 1:33 a.m. from Launch Complex 7.

For more information about the launch, click the button.

Launch to space Long March 4B | Feng Yun 1C
Long March 4B | Feng Yun 1C

Agency: N/A

Status: Launch Successful

Launch date: May 10, 1999, 1:33 a.m. UTC

Rocket: Long March 4B

Launch pad: Launch Complex 7

Location: Taiyuan Satellite Launch Center, People's Republic of China

...

Latest news about this satellite

There are no fresh news available about this satellite. Check back as we update our databases every day.


Newsletter sign-up

Weekly statistics, charts and insights to help you stay on top of the space industry.